Location: Poughquag
(41.6090°N, 73.6820°W)
Time: 07:46:23
(UTC-05:00)

Altair - Pass Details

Date: 03 December 2023
Orbit: 1501 x 1682 km, 47.2° (Epoch: 02 March)

Event Time Altitude Azimuth Distance (km) Brightness Sun altitude
Rises 15:04:41 0° 297° (WNW) 4,678 10.3 11.2°
Reaches altitude 10° 15:07:49 10° 293° (WNW) 3,678 9.9 10.8°
Maximum altitude 15:16:37 52° 220° (SW) 1,806 8.8 9.6°
Drops below altitude 10° 15:25:22 10° 147° (SSE) 3,652 9.6 8.3°
Sets 15:28:30 0° 143° (SE) 4,642 10.1 7.9°
